Temperature
22 20 20 21 21 22 23 22 22 22 23 23 22 21 20 19 19 19 18 18 18 19 19 18 18 18 18 18 17 17 17 18 18 17 17 17 17 17 17 17 17 17 17 17
20 20 21 22 22 22 22 22 22 22 23 22 21 21 20 19 19 19 19 18 18 18 18 18 18 18 18 17 17 17 17 17 17 17 17 17 18 17 17 17 17 17 17 17
21 22 23 23 23 23 23 22 22 22 23 21 21 21 20 19 19 19 19 19 18 18 18 18 18 18 17 17 17 17 17 17 17 17 17 17 17 17 17 17 17 17 16 16
21 22 23 23 23 23 22 23 23 23 22 20 21 20 20 19 18 18 18 18 18 18 18 18 18 18 17 17 17 17 17 17 17 17 17 17 17 17 17 17 17 17 16 16
21 22 23 23 23 24 23 23 22 22 20 19 19 19 19 19 19 18 18 18 18 19 18 18 18 18 18 18 17 17 17 17 17 17 17 17 17 17 17 17 17 16 16 16
22 23 23 23 24 24 23 22 20 17 18 19 20 19 19 18 19 19 19 19 19 19 19 19 18 18 17 17 17 17 17 17 17 17 17 17 17 17 17 17 17 16 16 16
22 23 23 24 24 23 23 20 19 20 18 19 18 18 18 19 19 19 19 19 19 19 19 19 18 18 17 17 17 17 17 17 17 17 17 17 17 17 17 17 17 17 16 16
21 21 22 23 23 22 21 20 19 20 19 18 18 18 19 20 20 20 20 20 19 19 19 19 19 18 18 17 17 17 17 17 17 17 17 17 17 17 17 17 17 17 17 17
20 20 22 23 23 22 21 19 19 18 18 18 18 18 19 20 19 19 19 19 19 19 19 19 19 18 18 18 18 17 17 17 17 17 17 17 17 17 17 17 17 17 17 16
20 21 22 23 23 22 21 19 17 17 18 19 19 19 19 20 20 19 18 18 19 19 19 19 19 19 19 18 18 18 18 18 17 17 17 17 17 17 17 17 17 17 17 16
20 20 21 22 22 22 20 19 17 16 17 18 19 19 19 19 19 18 18 19 19 20 20 20 19 19 19 19 18 18 18 18 18 17 17 17 17 17 17 17 17 17 17 16
18 18 18 20 21 21 21 19 17 18 18 17 17 19 20 19 19 18 18 19 20 20 20 20 20 19 19 19 19 18 18 18 18 18 17 17 17 17 17 17 17 17 16 16
18 17 18 19 20 20 20 19 17 17 16 15 17 19 20 19 19 19 19 19 20 20 20 20 20 20 19 19 19 19 18 18 18 18 17 17 17 17 17 17 17 17 16 16
17 16 18 19 19 19 20 20 18 17 17 16 17 19 20 19 19 18 19 19 20 20 20 20 20 20 20 19 19 19 19 18 18 18 17 17 17 17 17 17 17 17 16 16
17 17 17 18 19 19 19 20 19 18 18 18 19 18 19 19 18 19 19 19 19 20 20 20 20 20 20 20 19 19 19 18 18 18 18 18 18 18 17 17 17 17 16 16
15 16 17 18 19 19 19 19 19 19 19 18 19 19 18 18 18 18 19 18 18 19 19 20 20 20 20 20 20 19 19 19 18 18 18 18 18 17 17 17 17 16 16 16
14 15 16 16 18 18 18 19 19 19 19 19 19 19 18 18 17 17 18 18 18 19 19 20 19 20 20 20 20 19 19 19 18 18 18 18 18 17 17 17 17 17 16 16
13 14 13 15 17 17 18 18 19 19 19 18 18 18 17 16 16 17 18 18 18 19 19 19 19 20 20 20 19 19 19 18 18 18 18 18 17 17 17 17 17 17 16 16
12 13 13 14 15 16 18 18 17 18 18 17 17 16 16 16 16 16 17 17 18 18 19 19 19 19 19 19 19 19 18 18 18 18 18 18 17 17 17 17 17 16 16 16
12 12 13 14 16 16 17 17 17 17 17 16 16 16 16 16 16 16 16 16 17 18 18 19 19 19 19 19 18 18 18 18 17 17 17 17 17 17 17 16 16 16 15 15
13 13 13 14 15 15 16 16 17 17 17 16 16 16 16 15 15 15 15 16 17 17 18 18 18 18 18 18 18 18 17 17 17 16 16 16 16 16 16 16 15 15 15 15
13 13 13 13 14 15 15 15 15 15 15 15 15 16 15 15 14 14 15 15 16 16 17 17 17 17 17 17 17 17 16 16 16 16 15 15 15 15 15 15 15 15 14 14
12 13 12 13 14 14 14 14 14 15 14 15 15 15 14 14 14 14 14 15 15 16 16 16 16 16 16 16 16 16 15 15 15 15 15 15 14 14 14 14 14 14 13 13
13 12 12 13 13 13 14 14 14 15 14 15 14 14 14 13 13 13 13 14 14 15 15 15 15 15 14 14 14 14 14 14 14 14 14 14 14 14 13 13 13 13 12 12
13 13 12 13 13 13 14 14 14 14 14 14 14 14 13 13 13 13 13 13 13 13 14 14 14 14 13 13 13 13 13 13 13 13 13 13 13 13 13 12 12 12 12 12
11 12 12 13 12 12 12 13 13 13 13 13 13 13 13 13 13 13 12 12 13 13 13 13 13 13 13 13 13 13 13 13 13 13 13 12 12 12 12 12 12 12 12 12
Wind_Speed
4 4 5 8 8 6 3 4 9 9 5 3 4 5 5 4 6 7 7 7 8 8 7 7 7 7 7 7 8 9 9 9 8 6 6 6 5 4 4 4 7 9 10 11
3 5 9 6 5 5 4 6 7 8 3 0 2 4 3 4 6 7 9 9 8 7 5 6 7 8 8 9 9 8 9 9 8 7 5 4 4 4 3 3 6 8 10 11
9 7 4 5 4 4 5 6 7 6 3 4 2 5 3 3 2 3 5 6 7 8 8 8 8 8 9 10 10 10 10 10 9 8 5 5 4 3 3 4 4 6 10 11
6 7 4 5 6 6 7 7 7 4 1 4 2 4 7 3 4 5 6 6 7 7 7 7 7 8 9 10 11 10 10 10 9 10 9 10 7 6 5 5 5 5 8 9
8 6 7 8 8 8 7 0 1 1 3 1 2 2 8 2 5 8 9 9 8 8 9 8 8 8 8 8 9 10 10 10 10 10 10 10 7 5 4 4 6 5 4 7
8 4 6 8 6 5 4 5 6 6 5 1 3 2 8 5 7 6 7 9 9 9 8 7 6 6 6 7 8 9 10 9 9 10 10 10 10 9 8 7 7 5 4 4
6 5 5 5 2 1 4 5 4 5 4 6 2 3 10 8 7 7 8 9 8 9 8 7 7 7 7 8 8 8 9 9 9 10 10 10 10 10 10 9 9 7 5 4
5 7 5 5 8 7 6 9 7 5 5 6 2 6 8 6 5 5 5 6 7 8 8 9 9 9 8 9 9 9 9 9 9 10 10 9 10 8 7 8 8 9 7 6
7 7 4 3 4 9 7 5 6 7 3 2 6 8 10 3 2 3 4 5 7 8 9 9 9 9 9 9 9 10 10 9 9 10 9 9 9 9 8 8 8 7 6 6
9 5 4 2 3 2 5 9 6 6 5 4 6 6 6 7 5 3 4 6 7 7 8 9 9 9 8 9 8 9 9 9 8 9 9 9 9 8 8 8 8 8 8 7
6 6 4 1 4 6 4 5 5 5 5 6 4 8 7 7 5 5 6 7 7 8 8 9 8 8 7 7 8 9 9 8 8 8 8 8 8 8 7 7 8 8 7 8
4 5 3 5 4 3 6 8 8 6 5 5 4 8 5 5 5 5 5 5 6 7 7 7 7 7 7 8 8 9 9 8 8 8 8 8 7 7 7 7 7 7 8 8
4 5 1 6 5 1 2 4 5 6 6 6 5 8 3 1 2 3 4 5 5 6 6 6 6 7 7 8 7 8 8 8 8 8 8 8 7 7 8 7 7 7 7 7
4 4 6 8 7 4 3 4 5 6 5 6 8 9 7 5 4 4 4 5 6 6 7 7 7 7 7 7 7 7 7 7 8 9 9 9 9 9 8 7 7 7 8 8
4 3 4 6 5 4 5 6 7 8 9 9 9 9 10 7 6 4 3 3 5 6 7 8 8 7 7 7 6 7 7 7 8 9 9 9 8 8 7 7 7 7 7 8
3 3 2 3 5 4 5 7 9 9 6 7 6 8 6 3 1 1 3 5 5 6 7 8 7 7 8 8 8 7 7 7 8 8 8 7 6 7 7 7 6 6 6 6
2 3 3 4 4 1 6 8 9 6 7 8 10 9 2 1 0 0 2 4 4 5 6 7 7 7 7 7 7 7 6 6 7 7 7 7 7 7 7 7 6 7 7 6
5 4 3 2 1 6 8 3 4 6 6 6 5 3 3 3 2 3 3 4 4 4 4 4 5 5 5 5 5 5 5 6 6 6 6 6 7 7 6 6 7 6 5 6
4 6 3 3 4 6 5 2 1 2 4 3 4 3 4 6 5 5 5 5 4 4 4 4 4 4 5 5 5 6 6 5 5 5 5 5 6 7 7 7 7 6 6 6
3 3 3 3 4 6 5 3 2 2 4 2 3 5 6 5 3 2 3 5 6 6 6 6 6 7 6 4 6 8 6 5 4 3 4 4 5 6 6 6 5 5 5 5
1 1 3 4 4 6 3 5 2 4 5 3 2 4 4 3 4 6 5 6 7 8 8 8 8 8 5 5 7 8 6 4 3 3 3 4 4 4 3 3 3 3 4 4
3 2 3 3 3 5 4 3 2 4 2 1 1 4 7 9 10 9 8 8 9 9 10 9 10 9 7 7 9 9 6 4 5 6 6 5 3 2 2 2 1 1 2 3
3 4 3 4 5 3 2 4 4 2 1 0 3 6 11 12 10 9 9 9 10 10 10 9 10 11 9 8 9 9 5 5 7 7 6 6 5 4 4 3 2 2 1 1
2 2 2 2 3 3 4 3 3 2 2 3 6 9 10 12 11 11 10 10 10 10 9 9 11 11 10 9 9 7 6 7 8 8 6 6 6 5 5 3 3 2 1 1
3 2 1 2 3 4 4 4 3 5 6 8 10 10 11 13 13 12 11 11 10 10 9 10 11 11 9 9 9 8 7 8 8 7 6 6 5 4 4 3 3 2 1 1
1 2 2 2 2 1 2 3 4 7 8 10 12 13 12 13 13 13 11 10 10 9 9 10 11 10 9 9 8 7 6 7 8 7 6 5 4 3 3 3 4 6 3 3
Wind_Direction
136 113 201 210 196 199 215 257 279 277 282 254 250 245 231 188 189 190 186 189 195 200 192 181 174 172 170 168 169 173 171 168 159 156 163 164 169 164 159 162 159 161 160 157
77 238 226 203 196 201 227 273 282 295 332 50 294 275 236 196 208 205 194 195 198 195 180 179 174 176 178 175 173 173 174 173 173 170 166 166 155 153 153 149 153 161 161 159
191 228 189 183 215 231 252 231 254 268 327 34 10 312 263 235 226 212 200 194 191 192 188 185 183 185 184 182 180 181 183 184 178 165 149 134 112 104 127 148 160 167 166 162
224 244 223 231 239 204 264 241 231 250 268 297 26 282 285 255 244 226 215 201 194 193 190 187 186 186 191 191 185 183 181 182 175 167 167 165 170 173 177 166 162 159 165 161
227 212 197 219 230 197 226 280 98 106 138 350 355 212 286 285 252 239 222 211 202 196 191 188 188 191 190 186 182 181 178 180 175 174 175 174 172 165 145 143 148 151 155 161
237 225 203 214 226 194 173 76 54 51 71 309 264 195 278 245 229 236 218 208 200 194 191 186 180 176 180 177 178 177 177 180 176 173 172 175 170 160 155 162 164 160 157 158
276 261 233 198 235 296 128 98 24 351 1 254 257 226 251 251 230 220 220 212 199 189 184 180 176 179 183 179 180 177 172 175 177 175 175 176 173 170 172 172 173 166 166 174
216 275 244 200 194 194 174 148 165 205 230 271 291 244 256 258 248 231 212 200 187 186 185 186 185 184 186 182 178 175 173 175 178 179 180 179 175 178 181 178 174 179 184 182
191 246 283 232 187 152 144 171 164 140 156 254 277 282 299 267 254 231 188 177 190 191 188 188 186 185 184 183 182 178 176 176 179 181 176 178 176 180 183 180 176 180 180 176
167 229 280 275 91 66 143 143 110 131 156 242 282 277 261 275 271 236 210 200 202 194 189 186 184 185 185 182 177 176 177 179 178 177 178 184 181 182 181 176 180 183 181 173
153 187 291 28 178 186 118 115 118 125 155 168 246 268 232 234 234 219 219 210 198 195 192 189 185 182 178 168 168 176 179 177 177 180 179 176 177 177 176 182 189 187 182 177
146 143 232 254 253 198 172 171 152 158 205 183 192 263 271 228 230 210 211 205 193 189 183 176 175 170 169 170 172 177 182 184 183 176 168 170 170 171 178 189 193 187 185 186
127 121 78 339 341 359 167 172 166 137 132 161 183 259 291 305 259 220 201 191 181 173 167 159 158 169 174 176 176 180 182 183 175 168 167 171 174 179 188 193 190 185 187 188
119 132 172 201 220 213 229 201 162 140 160 198 217 243 280 281 262 245 220 190 174 172 170 168 170 176 176 175 176 179 182 177 170 169 174 183 187 191 194 190 187 188 188 191
107 173 215 233 244 220 225 231 196 196 193 195 226 228 249 249 242 234 204 170 156 166 172 176 179 178 172 170 174 179 182 177 173 173 184 195 190 186 185 187 191 189 190 198
76 173 200 265 258 231 247 250 225 216 209 217 233 251 244 252 217 153 162 159 169 180 182 177 174 173 177 180 182 182 183 181 172 178 191 189 177 178 185 188 187 186 190 191
133 154 165 248 270 301 256 235 219 211 207 191 215 232 203 203 43 180 164 156 170 176 173 174 176 177 182 184 180 178 179 166 169 182 186 180 178 185 191 187 180 187 191 188
149 140 163 215 175 227 244 247 203 208 228 211 214 214 175 163 95 53 95 135 138 139 148 158 163 166 167 165 166 161 152 152 165 175 182 181 182 188 184 181 189 193 187 189
154 149 157 170 213 263 285 294 141 195 252 210 186 172 142 128 89 51 56 92 114 115 116 116 122 127 128 135 145 136 133 141 150 163 173 177 177 180 181 191 196 193 189 197
84 116 147 179 200 233 251 293 308 130 261 264 171 172 160 130 117 119 65 81 87 82 85 89 90 89 96 107 121 123 127 129 145 164 166 158 160 168 182 193 195 190 191 205
51 88 185 204 229 260 288 307 327 183 239 292 198 180 157 134 142 128 105 92 90 84 83 85 84 83 83 100 112 114 113 123 137 124 115 118 134 153 171 180 184 184 186 189
188 190 200 183 218 256 335 344 226 240 286 310 107 127 118 113 112 110 103 94 86 81 78 85 87 79 70 85 100 98 95 95 93 94 92 87 82 90 110 107 118 148 169 184
205 202 203 200 226 270 308 284 289 276 233 107 111 118 122 119 114 106 96 87 81 79 77 80 87 80 67 70 90 97 89 84 87 86 82 77 70 60 59 73 75 73 115 157
266 190 201 264 283 310 330 330 347 30 79 100 111 117 120 118 111 104 97 88 80 74 74 79 82 79 68 61 70 78 75 78 82 79 72 70 72 64 55 58 71 87 98 124
261 214 213 258 290 336 358 12 44 70 87 97 97 103 110 111 106 102 96 90 85 80 76 77 82 80 72 65 62 61 71 83 83 78 71 65 61 62 56 51 52 71 81 175
272 217 197 227 262 228 318 1 69 91 94 100 102 99 97 102 103 99 93 87 84 81 79 79 77 77 72 69 63 53 61 79 83 73 63 62 60 56 58 59 48 45 52 51
Height
1476 1482 1487 1484 1483 1484 1485 1489 1491 1482 1472 1474 1475 1475 1472 1471 1472 1472 1474 1475 1477 1479 1481 1483 1486 1488 1491 1493 1496 1500 1504 1509 1514 1518 1523 1527 1531 1535 1539 1542 1544 1547 1549 1551
1480 1483 1476 1475 1477 1480 1484 1488 1487 1478 1471 1473 1476 1475 1471 1470 1470 1470 1471 1473 1475 1477 1480 1482 1483 1486 1489 1491 1494 1498 1502 1507 1512 1516 1521 1525 1529 1533 1537 1540 1543 1546 1548 1550
1478 1474 1469 1473 1476 1480 1482 1485 1483 1481 1474 1474 1477 1478 1473 1469 1469 1470 1470 1471 1473 1475 1477 1479 1482 1484 1486 1489 1492 1495 1500 1504 1509 1514 1519 1524 1528 1531 1534 1537 1541 1544 1546 1549
1473 1468 1469 1472 1474 1476 1484 1473 1474 1476 1483 1489 1485 1495 1477 1471 1470 1468 1468 1470 1471 1473 1475 1477 1480 1481 1483 1485 1489 1493 1498 1502 1507 1511 1516 1520 1523 1527 1532 1535 1539 1542 1545 1547
1470 1464 1467 1470 1468 1468 1472 1468 1472 1476 1484 1491 1489 1495 1484 1472 1471 1467 1465 1466 1468 1470 1473 1475 1477 1479 1481 1483 1487 1490 1495 1499 1504 1509 1514 1518 1522 1525 1530 1534 1537 1540 1543 1545
1462 1459 1460 1461 1459 1462 1465 1472 1478 1486 1493 1502 1491 1495 1489 1475 1466 1462 1461 1463 1465 1467 1470 1473 1475 1478 1480 1482 1485 1489 1492 1497 1502 1506 1511 1515 1519 1523 1528 1531 1535 1538 1541 1544
1466 1460 1456 1456 1461 1462 1467 1484 1502 1503 1510 1506 1492 1494 1486 1462 1457 1457 1457 1459 1461 1464 1467 1470 1473 1475 1477 1480 1483 1487 1490 1495 1499 1504 1508 1512 1517 1521 1525 1529 1532 1536 1539 1541
1476 1474 1457 1453 1458 1464 1468 1478 1501 1509 1511 1503 1492 1493 1472 1455 1453 1453 1454 1456 1458 1461 1465 1468 1470 1473 1475 1478 1481 1485 1489 1493 1497 1502 1506 1510 1514 1519 1523 1527 1530 1533 1537 1539
1473 1471 1453 1449 1449 1456 1468 1475 1475 1493 1498 1503 1496 1484 1465 1452 1452 1452 1453 1454 1456 1459 1462 1465 1468 1471 1473 1476 1479 1483 1487 1491 1496 1500 1504 1508 1512 1517 1521 1525 1528 1532 1535 1537
1459 1467 1456 1450 1450 1453 1457 1467 1482 1493 1504 1506 1494 1487 1477 1457 1453 1452 1452 1452 1454 1456 1459 1463 1466 1469 1472 1475 1478 1482 1486 1489 1494 1498 1502 1506 1510 1515 1519 1522 1526 1529 1532 1535
1454 1465 1462 1456 1457 1460 1463 1470 1477 1488 1491 1502 1503 1488 1457 1453 1450 1450 1450 1450 1451 1454 1457 1460 1464 1467 1471 1474 1477 1481 1484 1488 1492 1496 1499 1504 1508 1512 1516 1520 1523 1527 1530 1532
1454 1464 1470 1462 1452 1450 1455 1462 1473 1484 1488 1491 1495 1482 1447 1447 1446 1446 1447 1448 1450 1452 1455 1458 1462 1466 1469 1472 1476 1479 1483 1486 1490 1494 1497 1501 1506 1510 1514 1517 1521 1524 1527 1529
1454 1465 1475 1472 1466 1457 1457 1459 1463 1470 1481 1491 1492 1475 1446 1445 1444 1444 1445 1446 1448 1451 1454 1457 1461 1464 1468 1471 1474 1477 1481 1485 1489 1492 1496 1500 1504 1508 1511 1514 1518 1521 1524 1526
1451 1462 1470 1474 1468 1459 1458 1457 1461 1468 1479 1483 1477 1463 1449 1445 1444 1443 1443 1444 1446 1449 1452 1455 1459 1463 1466 1470 1473 1477 1480 1484 1487 1490 1494 1497 1501 1504 1508 1511 1514 1517 1520 1523
1451 1461 1459 1458 1454 1454 1454 1453 1456 1460 1461 1467 1461 1457 1447 1443 1441 1440 1442 1443 1445 1447 1450 1453 1456 1460 1464 1468 1471 1475 1478 1482 1485 1489 1492 1495 1498 1501 1505 1508 1511 1514 1517 1519
1454 1459 1458 1457 1452 1451 1452 1448 1449 1451 1452 1454 1452 1450 1440 1439 1439 1440 1440 1442 1443 1445 1447 1451 1454 1458 1462 1465 1469 1473 1476 1480 1484 1487 1490 1493 1496 1499 1502 1505 1508 1510 1513 1515
1457 1460 1463 1464 1454 1452 1457 1446 1444 1444 1442 1444 1448 1442 1438 1439 1438 1439 1440 1441 1442 1443 1446 1449 1452 1456 1459 1463 1467 1471 1474 1478 1482 1485 1488 1491 1494 1497 1500 1502 1504 1507 1509 1511
1456 1461 1466 1466 1461 1467 1448 1435 1435 1437 1437 1436 1436 1435 1436 1437 1438 1439 1439 1440 1441 1443 1446 1449 1451 1455 1458 1461 1465 1468 1473 1476 1479 1483 1486 1489 1492 1494 1497 1499 1501 1503 1505 1507
1453 1459 1465 1468 1466 1457 1443 1436 1436 1438 1438 1433 1434 1435 1436 1436 1437 1440 1440 1440 1442 1444 1446 1448 1451 1454 1457 1460 1464 1467 1470 1473 1476 1479 1482 1485 1488 1490 1493 1495 1497 1499 1501 1502
1454 1456 1462 1465 1463 1461 1445 1436 1434 1437 1440 1433 1432 1433 1434 1435 1441 1443 1442 1442 1443 1444 1446 1449 1451 1454 1457 1460 1462 1465 1468 1471 1473 1476 1479 1482 1484 1487 1489 1491 1493 1495 1496 1498
1458 1459 1461 1462 1460 1451 1440 1436 1435 1445 1440 1432 1431 1432 1433 1435 1438 1441 1443 1444 1445 1446 1448 1450 1452 1454 1457 1460 1462 1465 1467 1470 1472 1475 1478 1480 1482 1483 1485 1487 1488 1490 1491 1492
1457 1459 1459 1460 1460 1454 1439 1437 1439 1437 1432 1431 1431 1432 1433 1435 1438 1441 1443 1444 1446 1447 1449 1451 1453 1455 1458 1460 1462 1464 1467 1469 1472 1474 1476 1478 1480 1481 1482 1484 1485 1486 1488 1488
1454 1453 1452 1453 1451 1442 1439 1438 1435 1433 1432 1431 1431 1433 1435 1437 1440 1443 1444 1446 1448 1449 1452 1454 1455 1457 1460 1462 1464 1465 1468 1470 1472 1474 1475 1477 1478 1480 1481 1482 1483 1484 1484 1485
1449 1447 1448 1447 1443 1440 1438 1436 1435 1433 1432 1432 1433 1435 1438 1440 1443 1445 1447 1449 1451 1454 1456 1458 1459 1461 1463 1465 1467 1468 1470 1472 1474 1475 1476 1478 1479 1480 1480 1481 1482 1482 1483 1483
1447 1446 1446 1446 1442 1440 1438 1437 1436 1435 1435 1435 1437 1439 1441 1443 1446 1449 1451 1453 1456 1458 1460 1462 1463 1465 1467 1470 1471 1472 1474 1475 1476 1476 1477 1478 1480 1481 1481 1482 1482 1482 1483 1483
1446 1446 1446 1445 1442 1442 1441 1439 1438 1437 1438 1439 1440 1442 1445 1447 1450 1453 1456 1459 1462 1464 1466 1467 1468 1470 1472 1474 1475 1476 1477 1478 1478 1479 1479 1480 1481 1482 1482 1482 1482 1482 1483 1483